Change the Weather History Date:

Thursday, January 17, 2013

  Actual Average Record
Temperature  
Mean Temperature 14 °F -  
Max Temperature 21 °F 23 °F 44 °F (2009)
Min Temperature 7 °F 6 °F -40 °F (1951)
Degree Days  
Heating Degree Days 51    
Moisture  
Dew Point 12 °F    
Average Humidity 84    
Maximum Humidity 96    
Minimum Humidity 74    
Precipitation  
Precipitation 0.01 in - - ()
Sea Level Pressure  
Sea Level Pressure 29.74 in    
Wind  
Wind Speed 2 mph (NNW)    
Max Wind Speed 8 mph    
Max Gust Speed -    
Visibility 10 miles    
Events Snow    
Averages and records for this station are not official NWS values.
T = Trace of Precipitation, MM = Missing Value Source: NWS Daily Summary

Daily Weather History Graph

Daily Weather History Graph

Search for Another Location

Airport or City:

Trip Planner

Search our weather history database for the weather conditions in past years. The results will help you decide how hot, cold, wet, or windy it might be!

Date:

Astronomy

Jan. 17, 2013 Rise Set
Actual Time 9:52 AM AKST 4:38 PM AKST
Civil Twilight 8:59 AM AKST 5:31 PM AKST
Nautical Twilight 8:04 AM AKST 6:26 PM AKST
Astronomical Twilight 7:14 AM AKST 7:17 PM AKST
Moon 11:01 AM AKST (1/17) 12:35 AM AKST (1/17)
Length of Visible Light 8h 32m
Length of Day
6h 45m
Waxing Crescent, 39% of the Moon is Illuminated
Jan 17
Waxing Crescent
Jan 18
First Quarter
Jan 26
Full
Feb 3
Last Quarter
Feb 9
New

Hourly Weather History & Observations

Time (AKST) Temp. Windchill Dew Point Humidity Pressure Visibility Wind Dir Wind Speed Gust Speed Precip Events Conditions
12:15 AM 21.2 °F - 19.4 °F 93% 29.69 in 10.0 mi Calm Calm - N/A   Overcast
12:53 AM 21.9 °F - 19.9 °F 92% 29.70 in 10.0 mi Calm Calm - N/A   Overcast
1:53 AM 21.0 °F - 19.0 °F 92% 29.68 in 6.0 mi Calm Calm - 0.00 in Snow Light Snow
2:26 AM 21.2 °F - 19.4 °F 93% 29.66 in 10.0 mi Calm Calm - 0.00 in   Overcast
3:53 AM 19.0 °F - 17.1 °F 92% 29.65 in 10.0 mi Calm Calm - N/A   Overcast
4:53 AM 19.0 °F 13.9 °F 15.1 °F 85% 29.64 in 10.0 mi WNW 3.5 mph - N/A   Overcast
5:53 AM 19.0 °F - 16.0 °F 88% 29.63 in 10.0 mi Calm Calm - N/A   Overcast
6:53 AM 19.0 °F 13.9 °F 14.0 °F 81% 29.63 in 9.0 mi NW 3.5 mph - 0.01 in   Overcast
7:53 AM 19.0 °F - 12.9 °F 77% 29.63 in 10.0 mi Calm Calm - N/A   Overcast
8:53 AM 17.1 °F - 12.9 °F 84% 29.65 in 10.0 mi Calm Calm - N/A   Overcast
9:53 AM 17.1 °F 11.7 °F 10.9 °F 77% 29.65 in 10.0 mi West 3.5 mph - N/A   Overcast
10:53 AM 18.0 °F 12.7 °F 12.0 °F 78% 29.67 in 10.0 mi WNW 3.5 mph - N/A   Overcast
10:58 AM 17.6 °F 10.7 °F 12.2 °F 79% 29.66 in 10.0 mi WNW 4.6 mph - N/A   Overcast
11:53 AM 12.0 °F 4.1 °F 10.0 °F 92% 29.68 in 10.0 mi North 4.6 mph - N/A   Mostly Cloudy
12:53 PM 14.0 °F - 10.9 °F 88% 29.70 in 10.0 mi Calm Calm - N/A   Mostly Cloudy
1:53 PM 17.1 °F - 12.9 °F 84% 29.73 in 10.0 mi Calm Calm - N/A   Partly Cloudy
2:53 PM 16.0 °F 8.8 °F 12.0 °F 84% 29.75 in 10.0 mi NE 4.6 mph - N/A   Clear
3:53 PM 15.1 °F - 10.9 °F 84% 29.78 in 10.0 mi Calm Calm - N/A   Clear
4:37 PM 10.4 °F 4.0 °F 6.8 °F 85% 29.79 in 10.0 mi ENE 3.5 mph - N/A   Mostly Cloudy
4:53 PM 7.0 °F -1.7 °F 6.1 °F 96% 29.81 in 10.0 mi NNE 4.6 mph - N/A   Overcast
5:53 PM 12.0 °F 1.5 °F 7.0 °F 80% 29.81 in 10.0 mi North 6.9 mph - N/A   Overcast
6:53 PM 15.1 °F - 9.0 °F 77% 29.83 in 10.0 mi Calm Calm - N/A   Overcast
7:53 PM 16.0 °F 6.3 °F 9.0 °F 74% 29.86 in 10.0 mi North 6.9 mph - N/A   Overcast
8:53 PM 16.0 °F 5.3 °F 9.0 °F 74% 29.88 in 10.0 mi NNW 8.1 mph - N/A   Overcast
9:53 PM 12.0 °F 5.9 °F 7.0 °F 80% 29.91 in 10.0 mi North 3.5 mph - N/A   Overcast
10:53 PM 12.9 °F 6.9 °F 8.1 °F 81% 29.94 in 10.0 mi NNW 3.5 mph - N/A   Overcast
11:53 PM 12.9 °F - 7.0 °F 77% 29.96 in 10.0 mi Calm Calm - N/A   Overcast